GW6805 Weather Reports


time (UTC)temp
C
wind
direction
speed
KPH
gust
KPH
rain 1hr
cm
rain 24hr
cm
rain mn
cm
humidity
%
barometer
mb
20260508173604 20 45 11.3 17.7 0.00 1.24 1.04 79
20260508173012 19 130 11.3 17.7 0.00 1.24 0.89 79 1014.1
20260508172704 19 270 11.3 17.7 0.00 1.24 1.04 79
20260508171804 19 270 11.3 17.7 0.00 1.24 1.04 79
20260508171604 19 124 11.3 17.7 0.00 1.24 0.89 79 1014.0
20260508170904 20 292 16.1 19.3 0.00 1.24 1.04 78
20260508170055 19 109 12.9 19.3 0.00 1.24 0.89 78 1014.0
20260508170025 20 202 14.5 24.1 0.00 1.24 1.04 76
20260508165404 20 202 14.5 24.1 0.00 1.24 1.04 76
20260508164522 20 121 14.5 24.1 0.00 1.24 0.89 76 1013.7
20260508164504 21 292 16.1 25.7 0.00 1.24 1.04 76
20260508163605 21 292 16.1 25.7 0.00 1.24 1.04 76
20260508163008 20 109 14.5 25.7 0.00 1.24 0.89 76 1013.5
20260508162704 20 157 17.7 27.4 0.00 1.24 1.04 76
20260508161804 20 157 17.7 27.4 0.00 1.24 1.04 76
20260508161607 20 119 16.1 27.4 0.00 1.24 0.89 76 1013.5
20260508160925 20 22 16.1 19.3 0.00 1.24 1.04 75
20260508160017 20 113 9.7 19.3 0.00 1.32 0.89 75 1013.8
20260508160004 20 22 9.7 17.7 0.00 1.27 1.04 76
20260508155425 20 22 9.7 17.7 0.00 1.27 1.04 76
20260508154504 20 315 6.4 14.5 0.00 1.32 1.04 78
20260508154501 20 97 8.0 17.7 0.00 1.32 0.89 76 1014.1
20260508153604 20 315 6.4 14.5 0.00 1.32 1.04 78
20260508153058 20 126 9.7 14.5 0.00 1.32 0.89 78 1014.2
20260508152704 20 180 12.9 14.5 0.00 1.32 1.04 78
20260508151804 20 180 12.9 14.5 0.00 1.32 1.04 78
20260508151541 20 136 6.4 14.5 0.00 1.32 0.89 78 1014.4
20260508150904 20 157 17.7 17.7 0.00 1.32 1.04 79
20260508150120 20 167 11.3 17.7 0.00 1.32 0.89 79 1014.5
20260508150005 19 90 9.7 17.7 0.00 1.32 1.04 80
20260508145404 19 90 9.7 17.7 0.00 1.32 1.04 80
20260508144554 19 116 9.7 17.7 0.00 1.32 0.89 80 1014.7
20260508144518 19 202 8.0 19.3 0.00 1.32 1.04 83
20260508143604 19 202 8.0 19.3 0.00 1.32 1.04 83
20260508143110 19 153 8.0 19.3 0.00 1.32 0.89 83 1014.5
20260508142727 19 337 6.4 17.7 0.00 1.32 1.04 83
20260508141804 19 337 6.4 17.7 0.00 1.32 1.04 83
20260508141533 18 127 9.7 17.7 0.00 1.32 0.89 83 1014.8
20260508140904 18 225 14.5 17.7 0.00 1.32 1.04 83
20260508140114 18 106 14.5 17.7 0.00 1.32 0.89 83 1015.1
20260508140004 19 360 6.4 20.9 0.00 1.32 1.04 83
20260508135406 19 360 6.4 20.9 0.00 1.32 1.04 83
20260508134612 19 96 12.9 20.9 0.00 1.32 0.89 83 1015.0
20260508134504 19 45 20.9 24.1 0.00 1.32 1.04 83
20260508133604 19 45 20.9 24.1 0.00 1.32 1.04 83
20260508133042 19 114 17.7 24.1 0.00 1.32 0.89 83 1015.0
20260508132704 20 270 19.3 25.7 0.00 1.32 1.04 81
20260508131804 20 270 19.3 25.7 0.00 1.32 1.04 81
20260508131617 19 108 19.3 25.7 0.00 1.32 0.89 81 1014.9
20260508130904 20 225 17.7 25.7 0.00 1.32 1.04 78
20260508130045 20 90 14.5 25.7 0.00 1.32 0.89 78 1014.8
20260508130004 20 180 17.7 20.9 0.00 1.32 1.04 76
20260508125405 20 180 17.7 20.9 0.00 1.32 1.04 76
20260508124525 21 202 25.7 27.4 0.00 1.32 1.04 79
20260508123604 21 202 25.7 27.4 0.00 1.32 1.04 79
20260508123011 20 121 17.7 27.4 0.00 1.32 0.89 79 1014.4
20260508122704 21 90 16.1 27.4 0.00 1.32 1.04 77
20260508121804 21 90 16.1 27.4 0.00 1.32 1.04 77
20260508121607 21 100 12.9 27.4 0.00 1.32 0.89 77 1014.5
20260508120925 20 22 16.1 24.1 0.00 1.32 1.04 79
20260508120044 20 113 12.9 24.1 0.00 1.32 0.89 79 1014.5
20260508120004 21 360 20.9 24.1 0.00 1.32 1.04 77
20260508115404 21 360 20.9 24.1 0.00 1.32 1.04 77
20260508114506 20 112 14.5 24.1 0.00 1.32 0.89 77 1014.7
20260508114504 20 315 19.3 25.7 0.00 1.32 1.04 79
20260508113604 20 315 19.3 25.7 0.00 1.32 1.04 79
20260508113056 20 126 16.1 25.7 0.00 1.32 0.89 79 1014.8
20260508112704 20 360 8.0 22.5 0.00 1.32 1.04 79
20260508111825 20 360 8.0 22.5 0.00 1.32 1.04 79
20260508111533 20 128 11.3 22.5 0.00 1.32 0.89 79 1014.6
20260508110904 20 337 17.7 24.1 0.00 1.32 1.04 81
20260508110129 20 95 16.1 24.1 0.00 1.32 0.89 81 1014.8
20260508110005 19 67 12.9 25.7 0.00 1.32 1.04 84
20260508105404 19 67 12.9 25.7 0.00 1.32 1.04 84
20260508104603 19 115 17.7 25.7 0.00 1.32 0.89 84 1014.8
20260508104504 20 157 14.5 20.9 0.00 1.32 1.04 86
20260508103604 20 157 14.5 20.9 0.00 1.32 1.04 86
20260508103044 19 119 14.5 20.9 0.00 1.32 0.89 86 1014.7
20260508102704 19 157 14.5 19.3 0.00 1.32 1.04 90
20260508101826 19 157 14.5 19.3 0.00 1.32 1.04 90
20260508101517 19 119 12.9 19.3 0.00 1.32 0.89 90 1014.6
20260508100904 18 315 4.8 19.3 0.03 1.32 1.04 92
20260508100115 18 94 8.0 19.3 0.03 1.32 0.89 92 1014.6
20260508100004 18 180 12.9 14.5 0.05 1.32 1.04 95
20260508095404 18 180 12.9 14.5 0.05 1.32 1.04 95
20260508094606 17 88 6.4 14.5 0.05 1.32 0.89 95 1014.9
20260508094505 16 270 3.2 9.7 0.05 1.32 1.04 95
20260508093604 16 270 3.2 9.7 0.05 1.32 1.04 95
20260508093026 16 92 4.8 9.7 0.05 1.32 0.89 95 1014.9
20260508092704 16 202 3.2 9.7 0.23 1.32 1.04 94
20260508091825 16 202 3.2 9.7 0.23 1.32 1.04 94
20260508091507 16 153 1.6 9.7 0.23 1.32 0.89 94 1015.0
20260508090904 16 180 3.2 4.8 0.81 1.30 1.02 94
20260508090116 16 40 3.2 4.8 0.81 1.30 0.89 94 1014.8
20260508090005 16 180 4.8 6.4 0.81 1.27 0.99 93
20260508085427 16 180 4.8 6.4 0.81 1.27 0.99 93
20260508084549 16 40 4.8 6.4 0.81 1.27 0.86 93 1014.4
20260508084504 16 180 4.8 9.7 0.81 1.27 0.99 94
20260508083604 16 180 4.8 9.7 0.81 1.27 0.99 94
20260508083016 16 40 4.8 9.7 0.81 1.27 0.86 94 1014.5
20260508082704 16 337 4.8 8.0 0.64 1.09 0.81 93
20260508081825 16 337 4.8 8.0 0.64 1.09 0.81 93
20260508081616 16 207 1.6 8.0 0.64 1.09 0.69 93 1014.5
20260508080904 16 22 4.8 4.8 0.03 0.48 0.20 93
20260508080056 16 49 1.6 4.8 0.03 0.48 0.05 93 1014.4
20260508080004 16 337 8.0 14.5 0.00 0.46 0.18 93
20260508075404 16 337 8.0 14.5 0.00 0.46 0.18 93
20260508074527 16 47 6.4 14.5 0.00 0.46 0.05 93 1014.2
20260508074525 16 225 6.4 16.1 0.00 0.46 0.18 94
20260508073604 16 225 6.4 16.1 0.00 0.46 0.18 94
20260508073005 16 42 6.4 16.1 0.00 0.46 0.05 94 1014.1
20260508072704 16 45 6.4 14.5 0.00 0.46 0.18 95
20260508071804 16 45 6.4 14.5 0.00 0.46 0.18 95
20260508071550 15 50 4.8 14.5 0.00 0.46 0.05 95 1014.1
20260508070905 15 247 6.4 16.1 0.00 0.46 0.18 95
20260508070005 15 22 3.2 12.9 0.00 0.46 0.18 95
20260508065405 15 22 3.2 12.9 0.00 0.46 0.18 95
20260508064612 15 49 4.8 12.9 0.00 0.46 0.05 95 1014.0
20260508064504 15 157 6.4 11.3 0.00 0.46 0.18 95
20260508063604 15 157 6.4 11.3 0.00 0.46 0.18 95
20260508063012 15 87 4.8 11.3 0.00 0.46 0.05 95 1013.8
20260508062704 15 337 4.8 14.5 0.00 0.46 0.18 95
20260508061804 15 337 4.8 14.5 0.00 0.46 0.18 95
20260508061545 15 79 6.4 14.5 0.00 0.46 0.05 95 1013.6
20260508060905 15 67 9.7 12.9 0.00 0.46 0.18 96
20260508060015 15 67 6.4 12.9 0.00 0.46 0.05 96 1013.7
20260508060006 15 135 6.4 12.9 0.00 0.46 0.18 96
20260508055404 15 135 6.4 12.9 0.00 0.46 0.18 96
20260508054611 15 54 4.8 12.9 0.00 0.46 0.05 96 1013.5
20260508054504 15 225 1.6 4.8 0.00 0.46 0.18 96
20260508053604 15 225 1.6 4.8 0.00 0.46 0.18 96
20260508053044 15 42 1.6 4.8 0.00 0.46 0.05 96 1013.2
20260508052704 14 225 1.6 4.8 0.00 0.46 0.18 96
20260508051804 14 225 1.6 4.8 0.00 0.46 0.18 96
20260508051516 14 42 1.6 4.8 0.00 0.46 0.05 96 1012.8
20260508050925 14 225 1.6 4.8 0.00 0.46 0.18 96
20260508050046 13 42 1.6 4.8 0.00 0.46 0.05 96 1012.6
20260508050006 13 225 6.4 6.4 0.00 0.46 0.18 96
20260508045404 13 225 6.4 6.4 0.00 0.46 0.18 96
20260508044602 13 42 3.2 6.4 0.00 0.46 0.05 96 1012.4
20260508044505 13 225 3.2 4.8 0.00 0.46 0.18 96
20260508043605 13 225 3.2 4.8 0.00 0.46 0.18 96
20260508043005 13 42 3.2 4.8 0.00 0.46 0.05 96 1012.4
20260508042705 14 225 4.8 6.4 0.00 0.46 0.18 95
20260508041804 14 225 4.8 6.4 0.00 0.46 0.18 95
20260508041543 13 42 3.2 6.4 0.00 0.46 0.05 95 1012.3
20260508040905 14 225 3.2 3.2 0.00 0.46 0.18 95
20260508040110 14 42 0.0 3.2 0.00 0.46 0.05 95 1012.2
20260508040005 14 225 1.6 6.4 0.00 0.46 0.18 96
20260508035404 14 225 1.6 6.4 0.00 0.46 0.18 96
20260508034549 14 42 1.6 6.4 0.00 0.46 0.05 96 1012.0
20260508034504 15 292 4.8 11.3 0.00 0.46 0.18 95
20260508033625 15 292 4.8 11.3 0.00 0.46 0.18 95
20260508033011 14 45 4.8 11.3 0.00 0.46 0.05 95 1012.1
20260508032704 15 292 6.4 9.7 0.00 0.46 0.18 96
20260508031804 15 292 6.4 9.7 0.00 0.46 0.18 96
20260508031609 15 45 4.8 9.7 0.00 0.46 0.05 96 1012.3
20260508030925 15 315 4.8 8.0 0.00 0.46 0.18 96
20260508030005 15 315 4.8 6.4 0.00 0.46 0.18 96
20260508025425 15 315 4.8 6.4 0.00 0.46 0.18 96
20260508024601 14 46 4.8 6.4 0.00 0.46 0.05 96 1012.4
20260508024525 15 337 1.6 4.8 0.00 0.46 0.18 96
20260508023604 15 337 1.6 4.8 0.00 0.46 0.18 96
20260508023013 14 47 1.6 4.8 0.00 0.46 0.05 96 1012.4
20260508022725 15 337 0.0 8.0 0.00 0.46 0.18 96
20260508021804 15 337 0.0 8.0 0.00 0.46 0.18 96
20260508021616 14 47 1.6 8.0 0.00 0.46 0.05 96 1012.4
20260508020906 15 270 3.2 11.3 0.00 0.46 0.18 95
20260508020115 14 44 4.8 11.3 0.00 0.46 0.05 95 1012.2
20260508020004 15 202 4.8 8.0 0.00 0.46 0.18 95
20260508015404 15 202 4.8 8.0 0.00 0.46 0.18 95
20260508014551 14 41 4.8 8.0 0.00 0.46 0.05 95 1012.4
20260508014504 15 67 6.4 9.7 0.00 0.46 0.18 95
20260508013604 15 67 6.4 9.7 0.00 0.46 0.18 95
20260508013018 14 35 6.4 9.7 0.00 0.46 0.05 95 1012.4
20260508012704 15 315 4.8 4.8 0.00 0.46 0.18 95
20260508011804 15 315 4.8 4.8 0.00 0.46 0.18 95
20260508011505 14 46 3.2 4.8 0.00 0.46 0.05 95 1012.5
20260508010904 15 315 1.6 8.0 0.00 0.46 0.18 95
20260508010108 14 46 3.2 8.0 0.00 0.46 0.05 95 1012.7
20260508010004 15 315 4.8 9.7 0.03 0.46 0.18 95
20260508005404 15 315 4.8 9.7 0.03 0.46 0.18 95
20260508004559 14 46 4.8 9.7 0.03 0.46 0.05 95 1013.0
20260508004504 15 315 8.0 9.7 0.03 0.46 0.18 95
20260508003604 15 315 8.0 9.7 0.03 0.46 0.18 95
20260508003034 14 46 6.4 9.7 0.03 0.46 0.05 95 1013.1
20260508002726 15 225 8.0 12.9 0.03 0.46 0.18 95
20260508001804 15 225 8.0 12.9 0.03 0.46 0.18 95
20260508001526 14 58 4.8 12.9 0.03 0.46 0.05 95 1013.2
20260508000904 15 270 4.8 12.9 0.03 0.46 0.18 95
20260508000107 14 28 6.4 12.9 0.03 0.46 0.05 95 1013.2
20260508000004 15 112 6.4 6.4 0.00 0.43 0.15 95
20260507235404 15 112 6.4 6.4 0.00 0.43 0.15 95
20260507234555 14 37 3.2 6.4 0.00 0.43 0.03 95 1013.5
20260507234525 15 270 8.0 16.1 0.00 0.43 0.15 95
20260507233605 15 270 8.0 16.1 0.00 0.43 0.15 95
20260507233038 14 44 4.8 16.1 0.00 0.43 0.03 95 1013.7
20260507232704 15 270 9.7 16.1 0.00 0.43 0.15 95
20260507231804 15 270 9.7 16.1 0.00 0.43 0.15 95
20260507231512 14 44 8.0 16.1 0.00 0.43 0.03 95 1013.7
20260507230904 15 67 6.4 16.1 0.03 0.43 0.15 94
20260507230114 14 35 8.0 16.1 0.03 0.43 0.03 94 1013.9
20260507230005 15 112 6.4 17.7 0.15 0.43 0.15 94
20260507225405 15 112 6.4 17.7 0.15 0.43 0.15 94
20260507224555 14 37 9.7 17.7 0.15 0.43 0.03 94 1014.0
20260507224505 15 135 16.1 17.7 0.20 0.43 0.15 94
20260507223604 15 135 16.1 17.7 0.20 0.43 0.15 94
20260507223020 14 22 9.7 17.7 0.20 0.43 0.03 94 1014.1
20260507222704 15 270 16.1 17.7 0.33 0.43 0.15 94
20260507221804 15 270 16.1 17.7 0.33 0.43 0.15 94
20260507221615 14 12 14.5 17.7 0.33 0.43 0.03 94 1014.1
20260507220925 15 45 16.1 19.3 0.33 0.43 0.15 94
20260507220106 14 34 12.9 19.3 0.33 0.43 0.43 94 1014.1
20260507220026 15 247 4.8 19.3 0.18 0.28 0.00 93
20260507215404 15 247 4.8 19.3 0.18 0.28 0.28 93
20260507214549 14 75 9.7 19.3 0.18 0.28 0.28 93 1014.1
20260507214525 15 67 12.9 20.9 0.15 0.23 0.23 92
20260507213604 15 67 12.9 20.9 0.15 0.23 0.23 92
20260507213034 14 67 11.3 20.9 0.15 0.23 0.23 92 1014.0
20260507212705 15 360 9.7 17.7 0.00 0.10 0.10 92
20260507211804 15 360 9.7 17.7 0.00 0.10 0.10 92
20260507211507 14 32 11.3 17.7 0.00 0.10 0.10 92 1013.8
20260507210904 15 270 12.9 17.7 0.00 0.10 0.10 92
20260507210056 14 28 12.9 17.7 0.00 0.10 0.10 92 1013.7
20260507210026 15 45 9.7 17.7 0.00 0.10 0.10 92
20260507205405 15 45 9.7 17.7 0.00 0.10 0.10 92
20260507204518 14 34 11.3 17.7 0.00 0.10 0.10 92 1013.7
20260507204505 15 180 9.7 16.1 0.00 0.10 0.10 93
20260507203625 15 180 9.7 16.1 0.00 0.10 0.10 93
20260507203113 14 40 9.7 16.1 0.00 0.10 0.10 93 1013.6
20260507202704 15 67 12.9 17.7 0.00 0.10 0.10 93
20260507201804 15 67 12.9 17.7 0.00 0.10 0.10 93
20260507201516 14 19 11.3 17.7 0.00 0.10 0.10 93 1013.3
20260507200904 15 315 12.9 17.7 0.00 0.10 0.10 93
20260507200005 15 202 9.7 17.7 0.00 0.10 0.10 93
20260507195426 15 202 9.7 17.7 0.00 0.10 0.10 93
20260507194558 15 25 9.7 17.7 0.00 0.10 0.10 93 1012.9
20260507194504 15 315 9.7 19.3 0.03 0.10 0.10 93
20260507193605 15 315 9.7 19.3 0.03 0.10 0.10 93
20260507193018 15 30 11.3 19.3 0.03 0.10 0.10 93 1012.7
20260507192706 15 135 16.1 19.3 0.03 0.10 0.10 93
20260507191804 15 135 16.1 19.3 0.03 0.10 0.10 93
20260507191536 15 22 14.5 19.3 0.03 0.10 0.10 93 1012.7
20260507190904 15 180 12.9 17.7 0.03 0.10 0.10 93
20260507190026 15 225 12.9 17.7 0.03 0.10 0.10 93
20260507190013 15 24 11.3 17.7 0.03 0.10 0.10 93 1012.5
20260507185405 15 225 12.9 17.7 0.03 0.10 0.10 93
20260507184610 15 26 12.9 17.7 0.03 0.10 0.10 93 1012.5
20260507184504 15 22 8.0 20.9 0.00 0.08 0.08 92
20260507183625 15 22 8.0 20.9 0.00 0.08 0.08 92
20260507183053 15 17 11.3 20.9 0.00 0.08 0.08 92 1012.3
20260507182725 15 247 16.1 17.7 0.00 0.08 0.08 92
20260507181805 15 247 16.1 17.7 0.00 0.08 0.08 92
20260507181533 15 11 12.9 17.7 0.00 0.08 0.08 92 1012.1
20260507180904 15 22 8.0 17.7 0.00 0.08 0.08 92
20260507180011 15 49 9.7 17.7 0.00 0.08 0.08 92 1012.0
20260507180004 15 135 14.5 20.9 0.00 0.08 0.08 92
20260507175405 15 135 14.5 20.9 0.00 0.08 0.08 92
20260507174607 15 38 11.3 20.9 0.00 0.08 0.08 92 1011.9
20260507174504 15 292 8.0 17.7 0.00 0.08 0.08 92